Weather History for Tampa, FL

Change the Weather History Date:

Friday, January 18, 2013

  Actual Average Record
Temperature  
Mean Temperature 53 °F 61 °F  
Max Temperature 64 °F 70 °F 84 °F (1990)
Min Temperature 42 °F 51 °F 29 °F (1965)
Degree Days  
Heating Degree Days 12 6  
Month to date heating degree days 24 108  
Since 1 July heating degree days 150 291  
Cooling Degree Days 0 2  
Month to date cooling degree days 92 34  
Year to date cooling degree days 92 34  
Growing Degree Days 3 (Base 50)    
Moisture  
Dew Point 42 °F    
Average Humidity 64    
Maximum Humidity 71    
Minimum Humidity 57    
Precipitation  
Precipitation 0.00 in 0.06 in 1.31 in (2004)
Month to date precipitation 0.49 1.21  
Year to date precipitation 0.49 1.21  
Sea Level Pressure  
Sea Level Pressure 30.27 in    
Wind  
Wind Speed 10 mph (NNE)    
Max Wind Speed 20 mph    
Max Gust Speed 26 mph    
Visibility 10 miles    
Events      
T = Trace of Precipitation, MM = Missing Value Source: NWS Daily Summary

Daily Weather History Graph

Daily Weather History Graph

Search for Another Location

Airport:

Trip Planner

Search our weather history database for the weather conditions in past years. The results will help you decide how hot, cold, wet, or windy it might be!

Date:

Astronomy

Jan. 18, 2013 Rise Set
Actual Time 7:22 AM EST 5:59 PM EST
Civil Twilight 6:57 AM EST 6:24 PM EST
Nautical Twilight 6:28 AM EST 6:53 PM EST
Astronomical Twilight 6:00 AM EST 7:21 PM EST
Moon 11:42 AM EST (1/18) 12:08 AM EST (1/18)
Length of Visible Light 11h 27m
Length of Day
10h 37m
Waxing Crescent, 47% of the Moon is Illuminated
Jan 18
Waxing Crescent
Jan 18
First Quarter
Jan 26
Full
Feb 3
Last Quarter
Feb 10
New

Hourly Weather History & Observations

Time (EST) Temp. Windchill Dew Point Humidity Pressure Visibility Wind Dir Wind Speed Gust Speed Precip Events Conditions
12:53 AM 52.0 °F - 42.1 °F 69% 30.18 in 10.0 mi NNW 16.1 mph 24.2 mph N/A   Overcast
1:53 AM 51.1 °F - 42.1 °F 71% 30.19 in 10.0 mi NNW 12.7 mph - N/A   Overcast
2:53 AM 48.0 °F - 39.0 °F 71% 30.21 in 10.0 mi North 11.5 mph 18.4 mph N/A   Overcast
3:13 AM 46.4 °F 41.9 °F 39.2 °F 76% 30.21 in 10.0 mi NNE 9.2 mph 18.4 mph N/A   Overcast
3:53 AM 44.1 °F 37.7 °F 34.0 °F 68% 30.22 in 10.0 mi North 12.7 mph - N/A   Overcast
4:53 AM 43.0 °F 37.2 °F 33.1 °F 68% 30.23 in 10.0 mi North 10.4 mph - N/A   Overcast
5:44 AM 42.8 °F 36.6 °F 33.8 °F 70% 30.25 in 10.0 mi North 11.5 mph 19.6 mph N/A   Scattered Clouds
5:53 AM 43.0 °F 36.8 °F 32.0 °F 65% 30.25 in 10.0 mi North 11.5 mph - N/A   Scattered Clouds
6:53 AM 42.1 °F 36.6 °F 33.1 °F 70% 30.28 in 10.0 mi North 9.2 mph - N/A   Clear
7:53 AM 43.0 °F 38.2 °F 34.0 °F 71% 30.31 in 10.0 mi NNE 8.1 mph 18.4 mph N/A   Mostly Cloudy
8:53 AM 45.0 °F 40.6 °F 35.1 °F 68% 30.32 in 10.0 mi NNE 8.1 mph - N/A   Overcast
9:53 AM 48.0 °F - 37.0 °F 66% 30.33 in 10.0 mi North 5.8 mph - N/A   Mostly Cloudy
10:53 AM 51.8 °F - 39.2 °F 62% 30.33 in 10.0 mi North 9.2 mph - N/A   Mostly Cloudy
11:10 AM 51.8 °F - 39.2 °F 62% 30.33 in 10.0 mi NNE 8.1 mph - N/A   Overcast
11:34 AM 51.8 °F - 39.2 °F 62% 30.32 in 10.0 mi NNE 8.1 mph - N/A   Overcast
11:53 AM 54.0 °F - 41.0 °F 62% 30.31 in 10.0 mi North 8.1 mph - N/A   Overcast
12:53 PM 59.0 °F - 44.1 °F 58% 30.27 in 10.0 mi NE 8.1 mph - N/A   Mostly Cloudy
1:53 PM 60.1 °F - 46.0 °F 60% 30.26 in 10.0 mi NE 9.2 mph 18.4 mph N/A   Overcast
2:44 PM 60.8 °F - 48.2 °F 63% 30.26 in 10.0 mi NE 9.2 mph 17.3 mph N/A   Overcast
2:53 PM 60.1 °F - 50.0 °F 69% 30.26 in 10.0 mi NE 11.5 mph 20.7 mph N/A   Overcast
3:53 PM 63.0 °F - 51.1 °F 65% 30.25 in 10.0 mi NE 5.8 mph - N/A   Overcast
4:53 PM 63.0 °F - 51.1 °F 65% 30.26 in 10.0 mi NNE 6.9 mph - N/A   Overcast
5:36 PM 62.6 °F - 51.8 °F 68% 30.26 in 10.0 mi NE 6.9 mph - N/A   Overcast
5:53 PM 63.0 °F - 51.1 °F 65% 30.27 in 10.0 mi NE 5.8 mph - N/A   Overcast
6:53 PM 63.0 °F - 50.0 °F 63% 30.29 in 10.0 mi NNE 11.5 mph 18.4 mph N/A   Overcast
7:53 PM 61.0 °F - 50.0 °F 67% 30.30 in 10.0 mi NNE 9.2 mph 19.6 mph N/A   Overcast
8:53 PM 60.1 °F - 48.9 °F 67% 30.31 in 10.0 mi NNE 12.7 mph 18.4 mph N/A   Overcast
9:53 PM 59.0 °F - 46.9 °F 64% 30.31 in 10.0 mi NNE 12.7 mph 21.9 mph N/A   Mostly Cloudy
10:53 PM 57.0 °F - 46.9 °F 69% 30.30 in 10.0 mi NNE 8.1 mph 18.4 mph N/A   Mostly Cloudy
11:53 PM 57.0 °F - 46.0 °F 67% 30.29 in 10.0 mi NNE 8.1 mph - N/A   Overcast